GW2299 Weather Reports


time (UTC)temp
C
wind
direction
speed
KPH
gust
KPH
rain 1hr
cm
rain 24hr
cm
rain mn
cm
humidity
%
barometer
mb
20260906063035 20 0 0.0 1.6 0.00 0.00 0.00 80 1023.1
20260906061535 20 0 0.0 0.0 0.00 0.00 0.00 82 1022.9
20260906060033 20 0 0.0 0.0 0.00 0.00 0.00 82 1022.8
20260906053042 20 0 0.0 0.0 0.00 0.00 0.00 83 1022.5
20260906051534 20 259 0.0 1.6 0.00 0.00 0.00 84 1022.6
20260906050035 20 0 0.0 1.6 0.00 0.00 0.00 84 1022.4
20260906043035 19 0 0.0 1.6 0.00 0.00 0.00 83 1022.4
20260906034542 20 0 0.0 1.6 0.00 0.00 0.00 81 1022.2
20260906033035 20 0 0.0 0.0 0.00 0.00 0.00 80 1022.1
20260906031536 20 0 0.0 1.6 0.00 0.00 0.00 80 1022.1
20260906024538 20 0 0.0 1.6 0.00 0.00 0.00 79 1022.2
20260906023034 20 259 0.0 1.6 0.00 0.00 0.00 77 1022.1
20260906021533 20 0 0.0 0.0 0.00 0.00 0.00 76 1022.1
20260906014545 21 259 0.0 1.6 0.00 0.00 0.00 75 1022.2
20260906011535 21 0 0.0 1.6 0.00 0.00 0.00 70 1022.2
20260906010036 21 0 0.0 1.6 0.00 0.00 0.00 66 1022.2
20260906001535 21 0 0.0 0.0 0.00 0.00 0.00 65 1022.2
20260906000040 21 0 0.0 0.0 0.00 0.00 0.00 64 1022.1
20260905233039 21 0 0.0 0.0 0.00 0.00 0.00 63 1022.3
20260905231541 21 0 0.0 0.0 0.00 0.00 0.00 65 1022.2
20260905224535 22 0 0.0 0.0 0.00 0.00 0.00 63 1022.3
20260905223035 22 0 0.0 0.0 0.00 0.00 0.00 63 1022.5
20260905221537 22 0 0.0 0.0 0.00 0.00 0.00 64 1022.5
20260905220033 22 0 0.0 0.0 0.00 0.00 0.00 65 1022.3
20260905213034 23 0 0.0 1.6 0.00 0.00 0.00 57 1022.3
20260905211538 23 0 0.0 1.6 0.00 0.00 0.00 58 1022.2
20260905210033 23 0 0.0 4.8 0.00 0.00 0.00 60 1022.1
20260905204537 23 0 0.0 0.0 0.00 0.00 0.00 64 1022.2
20260905203034 23 0 0.0 0.0 0.00 0.00 0.00 57 1022.3
20260905201534 23 0 0.0 0.0 0.00 0.00 0.00 57 1022.3
20260905200035 24 291 0.0 1.6 0.00 0.00 0.00 56 1022.2
20260905193042 24 273 1.6 9.7 0.00 0.00 0.00 56 1022.2
20260905191539 25 285 1.6 4.8 0.00 0.00 0.00 53 1022.0
20260905190035 25 275 0.0 3.2 0.00 0.00 0.00 53 1021.8
20260905184533 25 0 0.0 4.8 0.00 0.00 0.00 50 1021.6
20260905183036 26 278 1.6 9.7 0.00 0.00 0.00 49 1021.5
20260905180037 26 0 4.8 24.1 0.00 0.00 0.00 44 1020.8
20260905174533 26 217 8.0 24.1 0.00 0.00 0.00 44 1020.8
20260905173034 27 112 6.4 22.5 0.00 0.00 0.00 43 1020.7
20260905171537 27 212 8.0 29.0 0.00 0.00 0.00 43 1020.6
20260905170038 28 186 8.0 27.4 0.00 0.00 0.00 40 1020.5
20260905164534 28 263 9.7 29.0 0.00 0.00 0.00 39 1020.5
20260905163038 29 221 6.4 32.2 0.00 0.00 0.00 37 1020.6
20260905161534 29 221 9.7 30.6 0.00 0.00 0.00 36 1020.4
20260905160037 30 183 6.4 24.1 0.00 0.00 0.00 37 1020.4
20260905153037 30 200 9.7 30.6 0.00 0.00 0.00 38 1020.4
20260905151536 31 245 9.7 27.4 0.00 0.00 0.00 37 1020.3
20260905144535 31 296 6.4 25.7 0.00 0.00 0.00 40 1020.5
20260905143038 31 255 6.4 27.4 0.00 0.00 0.00 41 1020.4
20260905140037 31 295 6.4 22.5 0.00 0.00 0.00 41 1020.5
20260905134544 32 212 4.8 20.9 0.00 0.00 0.00 41 1020.5
20260905133033 32 198 8.0 22.5 0.00 0.00 0.00 39 1020.7
20260905131538 32 198 1.6 17.7 0.00 0.00 0.00 40 1020.7
20260905130033 31 231 4.8 22.5 0.00 0.00 0.00 39 1021.0
20260905124535 31 207 9.7 25.7 0.00 0.00 0.00 41 1021.0
20260905123035 31 176 6.4 22.5 0.00 0.00 0.00 41 1021.2
20260905121536 31 220 6.4 20.9 0.00 0.00 0.00 41 1021.3
20260905120037 31 89 6.4 20.9 0.00 0.00 0.00 40 1021.5
20260905114534 31 235 8.0 20.9 0.00 0.00 0.00 40 1021.7
20260905113037 31 263 6.4 22.5 0.00 0.00 0.00 39 1021.7
20260905111535 31 226 4.8 22.5 0.00 0.00 0.00 40 1021.5
20260905110036 31 189 6.4 24.1 0.00 0.00 0.00 41 1021.6
20260905104532 31 154 4.8 22.5 0.00 0.00 0.00 41 1021.7
20260905103043 31 338 1.6 19.3 0.00 0.00 0.00 40 1021.9
20260905101536 30 230 8.0 19.3 0.00 0.00 0.00 39 1022.1
20260905100039 31 296 6.4 20.9 0.00 0.00 0.00 39 1022.2
20260905094536 30 200 3.2 20.9 0.00 0.00 0.00 39 1022.4
20260905093047 30 288 3.2 11.3 0.00 0.00 0.00 39 1022.3
20260905091537 30 238 3.2 12.9 0.00 0.00 0.00 40 1022.2
20260905084533 29 0 3.2 11.3 0.00 0.00 0.00 41 1022.1
20260905083033 29 0 3.2 9.7 0.00 0.00 0.00 42 1021.9
20260905081534 28 293 0.0 3.2 0.00 0.00 0.00 42 1021.8
20260905074536 27 295 0.0 3.2 0.00 0.00 0.00 45 1021.7
20260905073035 27 294 0.0 3.2 0.00 0.00 0.00 45 1021.8
20260905071534 26 0 0.0 1.6 0.00 0.00 0.00 47 1021.8
20260905070036 25 0 0.0 0.0 0.00 0.00 0.00 48 1021.7